User: anonymous   Login
Location: Caltech
(34.1382°N, 118.1253°W)
Time: 04:46:06
(UTC-07:00)
Language:

TMSAT-1 - Orbit

View from above orbital plane
View from above orbital plane
View from above satellite
View from above satellite

Ground track
Ground track

The orbit data is extracted from the following two-line orbital elements,

1 25396U 98043C   16182.44887319 -.00000001  00000-0  18071-4 0  9994
2 25396  98.5401 129.3180 0001424 276.9897  83.1120 14.24398154934098
Epoch (UTC): 30 June 2016 10:46:22
Eccentricity: 0.0001424
inclination: 98.5401°
perigee height: 809 km
apogee height: 811 km
right ascension of ascending node: 129.3180°
argument of perigee: 276.9897°
revolutions per day: 14.24398154
mean anomaly at epoch: 83.1120°
orbit number at epoch: 93409

The dashed part of the orbit path shows where the satellite is in the earth's shadow,  

DLR